W6OLF Weather Reports


Display with metric or nautical units.
time (UTC)temp
F
wind
direction
speed
MPH
gust
MPH
rain 1hr
in
rain 24hr
in
rain mn
in
humidity
%
barometer
mb
20260505051551 57 243 0.0 1.0 0.00 0.00 0.00 83 1009.2
20260505041549 60 75 0.0 0.0 0.00 0.00 0.00 78 1008.9
20260505040048 61 330 0.0 4.0 0.00 0.00 0.00 76 1008.7
20260505033106 64 320 0.0 4.0 0.00 0.00 0.00 71 1008.4
20260505031546 65 300 0.0 0.0 0.00 0.00 0.00 68 1008.3
20260505030045 67 266 0.0 1.0 0.00 0.00 0.00 65 1008.2
20260505023057 70 313 0.0 4.0 0.00 0.00 0.00 60 1008.0
20260505021546 71 110 0.0 0.0 0.00 0.00 0.00 59 1008.0
20260505020050 72 108 0.0 1.0 0.00 0.00 0.00 56 1008.0
20260505013051 74 167 0.0 0.0 0.00 0.00 0.00 51 1007.9
20260505011558 76 2 0.0 4.0 0.00 0.00 0.00 50 1008.0
20260505010052 77 19 0.0 2.0 0.00 0.00 0.00 48 1008.0
20260505003044 78 318 0.0 1.0 0.00 0.00 0.00 44 1008.0
20260505001545 78 249 0.0 1.0 0.00 0.00 0.00 47 1008.0
20260505000046 78 288 0.0 6.0 0.00 0.00 0.00 45 1008.1
20260504233041 78 105 0.0 5.0 0.00 0.00 0.00 46 1008.1
20260504231551 77 264 0.0 1.0 0.00 0.00 0.00 49 1008.1
20260504230040 77 250 0.0 4.0 0.00 0.00 0.00 48 1008.3
20260504223039 78 253 0.0 2.0 0.00 0.00 0.00 42 1008.7
20260504221538 77 249 0.0 3.0 0.00 0.00 0.00 45 1008.8
20260504220035 77 267 0.0 2.0 0.00 0.00 0.00 49 1008.9
20260504213032 76 231 0.0 1.0 0.00 0.00 0.00 45 1009.1
20260504211531 76 317 0.0 5.0 0.00 0.00 0.00 46 1009.2
20260504210031 75 260 0.0 7.0 0.00 0.00 0.00 52 1009.2
20260504203034 74 28 0.0 10.0 0.00 0.00 0.00 51 1009.3
20260504201533 75 78 0.0 6.0 0.00 0.00 0.00 50 1009.3
20260504200036 74 51 0.0 1.0 0.00 0.00 0.00 58 1009.2
20260504193027 73 197 0.0 4.0 0.00 0.00 0.00 58 1009.4
20260504191528 73 309 0.0 5.0 0.00 0.00 0.00 53 1009.6
20260504190030 73 240 0.0 2.0 0.00 0.00 0.00 55 1009.7
20260504183024 72 304 0.0 1.0 0.00 0.00 0.00 55 1009.5
20260504181520 72 276 0.0 1.0 0.00 0.00 0.00 57 1009.6
20260504180018 71 271 0.0 0.0 0.00 0.00 0.00 60 1009.6
20260504173017 70 206 0.0 1.0 0.00 0.00 0.00 59 1009.6
20260504171532 69 278 0.0 0.0 0.00 0.00 0.00 61 1009.6
20260504081538 61 104 0.0 0.0 0.00 0.00 0.00 51 1008.2